IU2RPR-3 Weather Reports


time (UTC)temp
F
wind
direction
speed
knots
gust
knots
rain 1hr
in
rain 24hr
in
rain mn
in
humidity
%
barometer
mb
20260507051406 55 0.0 0.0 0.00 0.00 0.00 83 1015.1
20260507044401 55 0.0 0.0 0.00 0.00 0.00 79 1014.6
20260507041357 54 0.0 0.0 0.00 0.00 0.00 80 1014.4
20260507034353 54 0.0 0.0 0.00 0.00 0.00 84 1014.4
20260507031349 53 0.0 0.0 0.00 0.00 0.00 87 1014.5
20260507024344 53 0.0 0.0 0.00 0.00 0.00 91 1014.5
20260507021340 53 0.0 0.0 0.00 0.00 0.00 91 1014.5
20260507014336 53 0.0 0.0 0.00 0.00 0.00 88 1014.2
20260507011331 54 0.0 0.0 0.00 0.00 0.00 86 1014.1
20260507004327 54 0.0 0.0 0.00 0.00 0.00 88 1014.0
20260507001323 54 0.0 0.0 0.00 0.00 0.00 86 1014.1
20260506234319 54 0.0 0.0 0.00 0.00 0.00 87 1014.0
20260506231314 54 0.0 0.0 0.00 0.00 0.00 87 1013.9
20260506224310 54 0.0 0.0 0.00 0.00 0.00 85 1013.8
20260506221306 54 0.0 0.0 0.00 0.00 0.00 87 1013.8
20260506214301 54 0.0 0.0 0.00 0.00 0.00 86 1013.6
20260506211257 54 0.0 0.0 0.00 0.00 0.00 81 1013.8
20260506204253 54 0.0 0.0 0.00 0.00 0.00 79 1013.6
20260506201249 55 0.0 0.0 0.00 0.00 0.00 78 1013.5
20260506194244 55 0.0 0.0 0.00 0.00 0.00 80 1013.3
20260506191240 55 0.0 0.0 0.00 0.00 0.00 89 1012.7
20260506184236 55 0.0 0.0 0.00 0.00 0.00 88 1012.3
20260506181232 54 0.0 0.0 0.00 0.00 0.00 91 1011.8
20260506174230 53 0.0 0.0 0.00 0.00 0.00 91 1011.4
20260506171229 52 0.0 0.0 0.00 0.00 0.00 94 1011.3
20260506164228 56 0.0 0.0 0.00 0.00 0.00 80 1010.2
20260506162049 57 0.0 0.0 0.00 0.00 0.00 72 1010.5
20260506155048 65 0.0 0.0 0.00 0.00 0.00 76 1009.1
20260506152047 67 0.0 0.0 0.00 0.00 0.00 72 1009.0
20260506145046 67 0.0 0.0 0.00 0.00 0.00 73 1009.6
20260506142044 65 0.0 0.0 0.00 0.00 0.00 79 1010.0
20260506135043 68 0.0 0.0 0.00 0.00 0.00 70 1010.5
20260506132042 68 0.0 0.0 0.00 0.00 0.00 71 1010.8
20260506125041 68 0.0 0.0 0.00 0.00 0.00 76 1011.0
20260506122040 64 0.0 0.0 0.00 0.00 0.00 85 1011.4
20260506115038 62 0.0 0.0 0.00 0.00 0.00 83 1011.5
20260506112036 64 0.0 0.0 0.00 0.00 0.00 81 1011.6
20260506105035 63 0.0 0.0 0.00 0.00 0.00 86 1011.8
20260506102034 61 0.0 0.0 0.00 0.00 0.00 93 1012.1
20260506095033 60 0.0 0.0 0.00 0.00 0.00 95 1012.1
20260506092031 57 0.0 0.0 0.00 0.00 0.00 97 1012.1
20260506085030 57 0.0 0.0 0.00 0.00 0.00 98 1011.7
20260506082029 58 0.0 0.0 0.00 0.00 0.00 97 1012.0
20260506072026 57 0.0 0.0 0.00 0.00 0.00 99 1012.1
20260506062024 56 0.0 0.0 0.00 0.00 0.00 99 1012.7